Wind_Speed
9 9 10 11 13 13 13 14 15 16 16 17 18 19 19 18 17 16 16 15 15 15 15 15 15 16 16 17 17 18 18 18 18 19 19 19 18 19 20 22 22 23
10 10 11 12 13 13 14 15 16 16 16 17 17 17 17 16 15 14 13 13 13 13 13 14 14 15 15 16 17 17 17 17 17 18 18 18 18 19 20 22 22 23
12 12 12 13 14 16 16 17 17 18 18 18 17 16 15 13 12 11 11 11 11 11 12 13 14 15 15 16 16 17 17 16 17 17 18 18 18 19 20 21 22 23
13 13 13 14 16 17 18 18 18 18 17 16 15 13 12 11 10 9 9 10 10 11 12 13 14 15 15 16 16 16 16 16 16 17 18 18 18 19 20 21 22 23
14 14 15 16 17 18 18 18 18 17 16 14 12 11 10 9 8 8 9 9 10 11 12 13 14 15 15 15 15 15 15 15 16 17 18 18 18 19 20 21 22 23
14 16 17 18 19 19 18 17 16 15 14 12 10 9 9 8 7 8 8 9 11 12 13 14 14 14 14 14 14 14 15 15 16 17 18 18 18 19 20 21 23 24
15 17 18 20 20 19 18 17 16 14 12 10 9 8 8 7 7 8 9 10 11 12 13 13 13 13 13 13 14 14 15 16 16 17 18 18 18 19 20 22 23 25
16 17 19 20 20 19 18 16 14 12 11 9 8 8 8 7 8 9 10 11 11 12 12 12 12 12 12 13 14 15 16 17 17 17 17 17 18 19 20 22 23 25
17 17 18 19 18 17 16 15 13 11 9 8 8 8 8 8 9 9 10 10 11 11 11 11 11 12 13 14 15 16 17 17 16 16 17 18 19 20 20 22 24 25
19 18 17 17 16 16 15 13 12 10 8 7 8 8 9 9 9 10 10 10 10 10 10 11 11 12 13 14 15 16 16 17 16 16 17 18 20 21 21 22 24 26
20 18 17 16 15 15 14 13 12 10 8 8 9 9 10 10 9 9 9 9 10 10 10 10 11 13 14 15 16 16 16 17 17 16 17 18 20 22 22 23 24 25
19 17 16 15 14 14 14 13 12 10 9 9 9 10 10 10 9 9 9 9 9 10 10 11 12 13 14 15 16 16 16 16 17 17 17 18 20 22 23 23 24 25
19 17 15 14 13 14 14 13 12 11 10 10 10 10 11 10 9 9 9 9 9 9 10 11 13 14 14 15 15 15 15 16 17 17 18 18 20 22 23 24 25 26
17 17 16 14 13 14 14 14 13 12 10 10 10 11 11 10 9 9 9 9 9 9 11 12 13 14 14 15 15 15 15 16 17 18 18 19 20 22 23 24 25 26
16 16 15 14 14 14 15 15 14 12 10 10 11 12 11 10 9 9 8 8 9 10 11 12 13 13 14 14 14 14 15 15 17 18 18 19 20 22 23 24 25 26
15 15 16 16 15 15 15 15 14 11 10 11 12 12 11 10 9 9 8 8 9 10 11 12 12 13 13 13 13 14 14 15 16 17 19 19 20 22 23 24 25 26
17 17 18 17 17 16 16 15 14 12 11 12 13 12 11 10 9 8 8 8 9 10 11 11 12 12 12 12 13 13 14 15 16 17 18 19 20 21 22 23 24 26
18 18 18 18 17 16 16 15 14 12 12 13 13 12 11 10 9 8 8 8 9 10 10 11 10 11 11 11 12 13 14 15 16 17 18 19 20 21 22 23 24 25
16 17 18 18 17 16 16 16 14 13 13 13 13 12 12 11 9 8 8 8 9 9 9 9 9 10 10 11 11 12 13 15 16 17 17 18 20 21 22 23 24 25
15 17 18 18 17 16 16 16 14 13 13 14 13 13 12 10 9 8 8 8 8 8 8 8 9 9 9 10 11 12 13 14 15 16 17 18 19 20 22 23 24 25
16 17 18 18 17 16 16 15 14 14 14 14 14 13 11 10 9 8 7 7 8 8 8 8 8 8 9 10 11 12 13 14 15 16 16 17 19 20 21 23 24 25
16 17 17 17 17 16 16 15 15 14 14 14 14 12 11 10 8 7 7 7 7 7 7 7 7 7 8 9 10 11 12 13 14 15 16 17 18 20 22 23 24 25
17 17 17 17 17 16 16 15 15 15 15 14 13 12 11 9 7 7 7 6 6 6 6 6 6 7 8 9 10 10 11 12 13 14 16 17 18 20 22 23 23 25
18 17 17 17 16 16 16 16 16 15 15 14 13 12 10 8 7 7 6 6 5 5 5 5 5 6 7 8 9 9 10 11 12 14 15 17 19 20 21 22 23 25
18 18 18 17 16 16 16 16 16 16 15 14 13 11 9 7 7 6 5 5 5 5 5 4 5 5 6 6 7 8 9 10 12 13 15 17 19 20 21 22 24 25
18 18 17 17 16 17 17 17 17 16 15 14 12 10 8 7 6 5 4 4 5 4 4 3 4 4 4 5 6 7 8 9 11 12 14 16 17 19 20 22 23 24
Wind_Direction
249 260 269 273 274 276 278 277 274 272 275 279 282 285 287 289 291 292 293 294 294 295 294 294 292 293 294 295 295 295 295 296 297 298 301 303 306 307 305 305 305 307
255 264 273 280 282 283 281 278 275 275 279 283 286 289 291 293 295 295 296 295 293 293 292 292 291 292 294 293 294 294 295 297 298 300 302 304 307 307 306 308 310 312
259 270 282 288 285 280 276 273 275 277 281 285 287 289 290 293 294 293 292 291 289 289 288 289 289 290 292 292 292 294 295 298 299 301 303 306 309 309 310 313 315 317
262 273 281 283 280 276 273 272 275 278 281 284 284 286 287 288 288 286 285 284 284 286 286 287 288 288 290 290 291 294 296 299 300 302 305 309 312 314 316 318 319 321
262 270 273 277 277 275 272 272 277 279 280 280 280 283 283 280 279 277 278 280 282 284 284 285 286 287 288 289 291 294 296 299 302 305 309 314 318 320 320 321 323 324
268 271 273 276 277 276 275 276 279 278 277 277 278 279 275 270 270 270 273 277 277 279 281 282 284 285 287 289 291 294 297 301 306 311 315 320 323 323 323 324 325 325
274 276 276 276 275 275 277 277 277 274 273 274 273 271 266 262 264 266 269 271 274 277 279 281 283 285 288 290 293 297 302 308 313 317 320 323 324 324 325 326 326 327
278 278 276 273 271 272 274 274 272 269 270 270 267 264 261 260 261 264 267 270 274 278 281 283 284 286 289 293 298 304 309 313 318 321 323 324 324 325 328 328 327 328
279 277 273 269 268 269 270 269 266 266 267 265 262 260 259 260 262 265 269 273 275 279 281 283 285 289 294 300 305 310 313 316 320 324 326 326 325 328 331 330 329 330
278 278 274 270 268 268 267 265 264 264 263 258 256 258 258 261 264 267 270 272 274 278 280 283 288 294 300 304 309 312 315 318 322 327 330 328 327 330 332 331 330 331
277 279 277 273 271 270 266 264 262 259 255 252 253 257 260 262 264 265 268 269 272 275 279 286 293 298 303 306 311 315 318 322 325 330 332 330 329 329 331 332 331 331
278 282 281 276 272 269 265 261 258 252 247 248 253 258 260 261 260 261 263 265 269 275 281 290 296 300 306 310 314 319 322 325 327 331 333 332 329 329 331 333 333 333
280 283 282 277 272 266 260 256 251 245 241 245 252 258 258 257 256 256 259 262 268 277 285 293 299 304 310 314 318 323 325 327 328 331 334 333 331 331 333 335 335 334
280 281 281 278 270 259 252 250 246 242 241 246 252 256 255 253 250 250 255 261 270 282 289 297 303 308 314 318 322 325 327 328 329 331 334 335 334 334 335 336 336 336
276 280 281 277 265 252 247 246 244 242 242 245 249 252 250 247 245 247 254 263 274 285 293 300 306 312 317 321 324 326 328 329 329 331 335 338 338 337 337 338 338 339
273 280 281 274 259 246 243 244 243 242 242 244 246 248 246 242 241 246 255 266 277 287 296 303 310 315 319 322 324 325 328 330 331 334 338 340 340 339 340 341 341 341
276 279 276 268 252 243 242 242 242 241 239 242 244 243 241 239 240 247 257 270 281 291 300 307 312 317 319 322 324 325 329 333 335 339 341 342 342 342 343 344 344 344
273 273 269 260 246 240 239 239 239 238 236 240 241 238 238 238 239 247 259 272 284 295 304 308 312 316 318 321 324 328 333 337 340 343 343 344 344 344 346 346 346 347
265 268 264 252 240 236 237 237 237 234 233 237 237 234 235 236 238 248 260 274 287 296 302 306 310 314 318 324 328 332 338 341 343 344 345 346 347 347 349 349 349 349
268 269 258 243 235 234 235 236 235 230 229 233 234 231 232 234 239 249 264 278 288 296 301 305 310 316 322 328 332 337 342 344 344 346 348 350 350 350 352 352 352 351
272 265 249 237 233 232 233 234 233 229 226 230 233 230 229 234 242 254 269 281 288 295 302 306 312 321 327 332 337 342 346 347 346 347 350 353 353 353 355 355 353 351
270 259 243 234 231 232 233 232 231 228 224 227 230 230 229 234 245 259 272 280 287 294 300 307 317 326 331 335 341 346 348 348 348 350 353 355 356 357 359 356 353 352
263 250 235 230 230 232 231 229 227 225 223 224 226 228 232 238 248 262 271 278 288 294 299 311 322 330 335 339 344 349 350 349 352 355 356 357 359 1 360 356 354 355
252 239 228 227 229 229 228 226 224 223 222 222 223 225 232 241 250 262 271 279 288 292 299 315 328 334 339 342 346 350 351 353 358 359 360 1 4 3 359 357 358 357
240 228 223 225 226 226 224 221 220 221 222 221 221 224 231 241 251 261 271 281 287 290 300 318 330 335 337 341 349 353 354 360 5 4 5 7 6 3 1 1 1 359
231 222 222 223 223 222 220 218 218 219 220 220 221 223 229 236 245 255 264 273 278 282 296 315 325 325 331 347 356 357 2 8 11 11 12 11 7 5 4 4 2 1
Height
3160 3160 3161 3161 3161 3161 3161 3161 3160 3160 3159 3159 3159 3158 3157 3156 3155 3155 3154 3154 3154 3153 3153 3153 3152 3151 3150 3150 3149 3148 3147 3146 3145 3143 3142 3141 3140 3139 3137 3135 3133 3131
3159 3159 3159 3159 3159 3159 3159 3159 3158 3158 3158 3157 3156 3155 3154 3154 3153 3153 3153 3152 3152 3152 3151 3151 3150 3149 3149 3148 3147 3146 3145 3144 3143 3141 3140 3139 3138 3137 3134 3132 3130 3128
3157 3157 3157 3157 3157 3157 3157 3157 3156 3156 3155 3154 3154 3153 3152 3152 3152 3151 3151 3151 3151 3150 3150 3149 3149 3148 3147 3147 3146 3144 3143 3142 3141 3139 3138 3138 3136 3134 3132 3130 3127 3125
3155 3155 3156 3156 3156 3156 3156 3155 3155 3154 3153 3152 3152 3151 3151 3151 3150 3150 3150 3150 3149 3149 3148 3148 3147 3147 3146 3145 3144 3142 3141 3140 3139 3138 3137 3136 3134 3132 3129 3127 3125 3123
3154 3154 3155 3155 3155 3154 3154 3153 3153 3152 3151 3151 3150 3150 3149 3149 3149 3149 3149 3148 3148 3148 3147 3146 3146 3145 3144 3143 3142 3141 3140 3139 3138 3136 3135 3133 3131 3129 3127 3125 3123 3121
3153 3153 3153 3153 3153 3152 3152 3151 3150 3150 3149 3149 3148 3148 3148 3148 3148 3148 3147 3147 3147 3146 3145 3145 3144 3143 3142 3141 3140 3139 3138 3137 3136 3135 3133 3131 3129 3127 3125 3123 3121 3118
3151 3151 3151 3150 3150 3150 3149 3149 3148 3148 3147 3147 3147 3147 3147 3147 3146 3146 3146 3146 3145 3144 3144 3143 3142 3141 3141 3140 3139 3138 3137 3135 3134 3132 3131 3129 3127 3125 3123 3121 3118 3116
3149 3149 3149 3148 3148 3148 3147 3147 3147 3146 3146 3146 3145 3145 3145 3145 3145 3145 3144 3144 3143 3142 3142 3141 3141 3140 3139 3138 3137 3136 3135 3133 3132 3131 3129 3127 3125 3123 3122 3119 3117 3114
3147 3147 3147 3147 3146 3146 3146 3145 3145 3144 3144 3144 3144 3144 3144 3143 3143 3143 3143 3142 3141 3141 3140 3140 3139 3139 3138 3137 3136 3134 3133 3131 3130 3129 3127 3125 3123 3121 3120 3117 3115 3113
3145 3145 3145 3145 3144 3144 3143 3143 3142 3142 3142 3142 3142 3142 3142 3142 3142 3141 3141 3140 3140 3139 3139 3139 3138 3137 3136 3135 3134 3132 3131 3129 3128 3127 3125 3123 3121 3119 3118 3115 3113 3111
3142 3142 3142 3142 3142 3141 3141 3141 3140 3140 3140 3140 3140 3140 3141 3140 3140 3140 3139 3139 3138 3138 3138 3137 3136 3135 3134 3133 3132 3131 3129 3127 3126 3125 3123 3121 3119 3117 3116 3114 3112 3109
3139 3140 3139 3139 3139 3139 3139 3139 3138 3139 3139 3138 3139 3139 3139 3139 3138 3138 3138 3138 3137 3137 3136 3136 3135 3134 3133 3131 3130 3129 3127 3125 3124 3123 3122 3120 3117 3116 3114 3112 3110 3107
3137 3137 3137 3136 3136 3136 3137 3137 3137 3137 3137 3137 3137 3138 3138 3137 3137 3137 3136 3136 3136 3135 3135 3134 3133 3132 3131 3130 3128 3127 3125 3124 3122 3121 3120 3118 3116 3114 3112 3109 3107 3105
3134 3134 3134 3134 3134 3134 3134 3135 3135 3135 3135 3135 3136 3136 3136 3136 3135 3135 3135 3135 3135 3134 3133 3133 3132 3131 3129 3128 3126 3125 3124 3122 3120 3119 3118 3116 3114 3112 3110 3107 3105 3102
3132 3132 3132 3132 3132 3132 3132 3133 3133 3133 3133 3134 3134 3134 3134 3134 3134 3134 3134 3133 3133 3133 3132 3131 3130 3129 3127 3126 3125 3123 3122 3121 3119 3118 3116 3115 3112 3110 3108 3105 3103 3100
3130 3130 3130 3130 3129 3130 3130 3131 3131 3132 3132 3132 3132 3133 3133 3133 3132 3132 3132 3132 3132 3131 3130 3129 3128 3127 3125 3124 3123 3122 3121 3119 3118 3116 3114 3113 3111 3108 3106 3104 3101 3098
3128 3128 3128 3127 3127 3128 3128 3129 3129 3130 3130 3130 3131 3131 3131 3131 3131 3131 3130 3130 3130 3129 3128 3127 3126 3125 3124 3123 3122 3121 3120 3118 3116 3114 3113 3111 3109 3107 3105 3102 3100 3097
3125 3125 3125 3125 3125 3126 3127 3127 3128 3128 3128 3129 3129 3130 3130 3129 3129 3129 3129 3129 3128 3127 3126 3125 3124 3124 3123 3122 3120 3119 3118 3116 3114 3113 3111 3110 3108 3106 3103 3101 3098 3096
3122 3122 3122 3122 3123 3124 3124 3125 3126 3126 3127 3127 3128 3128 3128 3128 3128 3127 3127 3127 3126 3126 3125 3124 3123 3122 3121 3120 3119 3118 3116 3114 3113 3112 3110 3109 3107 3104 3102 3100 3097 3095
3119 3120 3120 3120 3121 3122 3122 3123 3124 3125 3125 3125 3126 3127 3127 3126 3126 3126 3126 3126 3125 3124 3124 3123 3122 3121 3120 3119 3117 3116 3115 3113 3112 3111 3109 3108 3105 3103 3101 3099 3096 3094
3117 3117 3117 3118 3119 3120 3121 3122 3122 3123 3124 3124 3125 3125 3125 3125 3125 3125 3125 3124 3124 3123 3122 3121 3120 3119 3118 3117 3116 3115 3113 3112 3111 3110 3108 3106 3104 3102 3100 3097 3095 3093
3114 3115 3115 3116 3118 3118 3119 3120 3121 3122 3122 3123 3123 3124 3124 3124 3124 3124 3123 3123 3122 3122 3121 3120 3119 3118 3117 3116 3115 3114 3112 3111 3110 3109 3107 3105 3103 3101 3099 3097 3095 3092
3112 3112 3113 3115 3116 3117 3118 3119 3119 3120 3121 3122 3122 3122 3122 3122 3123 3122 3122 3122 3121 3120 3119 3119 3118 3117 3116 3115 3114 3113 3112 3111 3109 3108 3106 3104 3102 3100 3098 3096 3094 3092
3109 3110 3111 3113 3114 3115 3116 3117 3118 3119 3120 3121 3121 3121 3121 3121 3121 3121 3121 3120 3120 3119 3118 3117 3117 3116 3115 3114 3113 3112 3111 3110 3109 3107 3105 3103 3101 3099 3098 3096 3093 3091
3107 3108 3109 3111 3112 3114 3115 3116 3117 3118 3119 3119 3120 3120 3120 3120 3120 3120 3120 3119 3118 3118 3117 3116 3116 3115 3114 3113 3112 3112 3111 3109 3108 3106 3105 3103 3101 3099 3098 3095 3093 3090
3104 3106 3108 3109 3111 3112 3113 3114 3115 3116 3117 3118 3118 3118 3119 3119 3119 3119 3118 3118 3117 3117 3116 3116 3115 3114 3114 3113 3112 3111 3110 3109 3107 3106 3104 3102 3101 3099 3097 3095 3093 3090